Regional Weather Roundup
Issued by NWS

Home | Current Version | Previous Version | Text Only | Print | Product List | Glossary On
Versions: 1 2 3 4 5 6 7 8 9 10 11 12 13 14 15 16 17 18 19 20 21 22 23 24 25 26 27 28 29 30 31 32 33 34 35 36 37 38 39 40 41 42 43 44 45 46 47 48 49 50
198
ASUS45 KBOU 090507
RWRCO

WEATHER ROUNDUP FOR COLORADO
NATIONAL WEATHER SERVICE DENVER/BOULDER CO
1000 PM MST THU DEC 08 2016

NOTE: "FAIR" INDICATES FEW OR NO CLOUDS BELOW 12000 FEET WITH NO
SIGNIFICANT WEATHER AND/OR OBSTRUCTIONS TO VISIBILITY.

COZ001>005-013-030-031-090600-
...NORTHWEST COLORADO...

CITY           SKY/WX    TMP DP  RH WIND       PRES   REMARKS
CRAIG          CLOUDY    22  13  68 E10       30.17S WCI  11
HAYDEN         CLOUDY    16  10  79 SE8       30.17R WCI   5
MEEKER         CLOUDY    25  17  72 CALM      30.19S
MOUNT WERNER   NOT AVBL
STEAMBOAT SPGS CLOUDY    14  11  89 CALM      30.17R
WALDEN           N/A     21  14  73 S13       30.09S WCI   9
$$

COZ006>008-011-090600-
...WEST CENTRAL VALLEYS...

CITY           SKY/WX    TMP DP  RH WIND       PRES   REMARKS
GRAND JUNCTION CLOUDY    26  16  65 CALM      30.28S
MONTROSE       CLOUDY    26  16  65 W3        30.28F
EAGLE          FLURRIES  18  14  84 CALM      30.26R
RIFLE          CLOUDY    24  14  65 CALM      30.28R
DELTA          CLOUDY    31  12  46 CALM      30.28S
NUCLA          CLOUDY    30  12  47 CALM      30.31S
$$

COZ017>023-064>068-090600-
...SOUTHWEST COLORADO...

CITY           SKY/WX    TMP DP  RH WIND       PRES   REMARKS
DURANGO        FAIR      25  10  53 CALM      30.31R
CORTEZ         CLOUDY    29  22  75 NE5       30.30S WCI  24
PAGOSA SPRINGS FAIR      19  10  68 CALM      30.32R
TELLURIDE      CLOUDY    30  20  67 SE5       30.29S WCI  25
WOLF CREEK PAS FAIR      10   7  85 SW12      30.32R WCI  -4
$$

COZ009-010-012-014-032>034-037-058>063-090600-
...CENTRAL COLORADO...

CITY           SKY/WX    TMP DP  RH WIND       PRES   REMARKS
ASPEN          NOT AVBL
BUENA VISTA    CLOUDY    30  15  54 N10       30.15F WCI  21
COPPER MTN     CLOUDY    21  16  79 MISG      30.12R
BERTHOUD PASS  SNOW      12   1  62 W35G46    30.01F VSB 1/2 WCI -10
COTTONWOOD PAS LGT SNOW  27  19  74 W15G32    30.11S WCI  15
GUNNISON       FLURRIES  16  13  88 CALM      30.31S
KREMMLING      LGT SNOW  14   9  79 CALM      30.19S
LEADVILLE      LGT SNOW  19  16  88 N5        30.13R VSB 1   WCI  12
MONARCH PASS   SNOW      14  10  85 W35G43    30.27F VSB 1/2 WCI  -8
SALIDA         CLOUDY    32  13  45 W6        30.23F WCI  26
SUNLIGHT       CLOUDY    18  16  93 SW22G33   30.20R WCI   0
WILKERSON PASS CLOUDY    14  12  92 SW23G35   30.08R WCI  -5
$$

COZ069>075-090600-
...SAN LUIS VALLEY/SANGRE DE CRISTO MOUNTAINS...

CITY           SKY/WX    TMP DP  RH WIND       PRES   REMARKS
ALAMOSA        FAIR       8   3  80 NW6       30.27R WCI  -2
LA VETA PASS   FAIR      21   7  53 NE32G52   30.10F WCI   2
SAGUACHE       CLOUDY    21  14  73 NW6       30.27S WCI  14
$$

COZ035-036-038>040-090600-
...NORTHERN COLORADO FRONT RANGE...

CITY           SKY/WX    TMP DP  RH WIND       PRES   REMARKS
DENVER INTL AP MOCLDY     7   2  80 CALM      30.19F
DMNS CITY PARK   N/A      8   3  81 NE1G8     30.20F
AURORA         MOCLDY     6   3  88 CALM      30.18F
FRONT RANGE AP NOT AVBL
ERIE MUNI ARPT FAIR       6   3  88 CALM      30.21F
BOULDER MUN AP FAIR      10   7  85 CALM      30.20F
CENTENNIAL     MOCLDY     7   3  84 N3        30.16F
BROOMFIELD     MOCLDY     9   5  85 CALM      30.18F
FORT COLLINS   FAIR      10   3  72 CALM      30.22F
LONGMONT       FAIR       7   2  80 CALM      30.24F
$$

COZ041-046-047-076>085-087-088-090600-
...PIKES PEAK/PALMER DIVIDE AND SOUTHERN FOOTHILLS...

CITY           SKY/WX    TMP DP  RH WIND       PRES   REMARKS
COLO. SPRINGS  LGT SNOW   9   2  73 E8        30.21S FOG     WCI  -3
A. F. ACADEMY  CLOUDY    11   7  83 SE10      30.16F WCI  -3
SCHRIEVER AFB  NOT AVBL
ELLICOTT       FAIR     N/A N/A N/A SE9         N/A
FALCON         LGT SNOW   4  -1  82 S7        30.16F WCI  -8
FORT CARSON    CLOUDY     9   1  69 S1        30.20F
LIMON          FAIR       6  -1  73 S9        30.25F WCI  -8
MONUMENT HILL  FAIR       9   3  78 S22       30.11F WCI -11
TRINIDAD       FAIR      11   6  81 W8        30.23F WCI  -1
$$

COZ042>045-048>051-090-091-090600-
...NORTHEAST COLORADO...

CITY           SKY/WX    TMP DP  RH WIND       PRES   REMARKS
GREELEY ARPT   MOCLDY    13   5  70 CALM      30.26F
AKRON          CLOUDY    13   4  67 S14       30.27F WCI  -2
BURLINGTON     FAIR      10   1  67 S14       30.36F WCI  -6
WRAY           NOT AVBL
STERLING       FAIR      14   7  73 S10       30.30F WCI   1
HOLYOKE        FAIR      10   3  72 S8        30.38F WCI  -1
FORT MORGAN    CLOUDY    15   7  68 MISG      30.27F
$$

COZ086-089-092>099-090600-
...SOUTHEAST COLORADO...

CITY           SKY/WX    TMP DP  RH WIND       PRES   REMARKS
PUEBLO         FAIR      11   2  67 N5        30.28F WCI   3
LA JUNTA       FAIR      14   3  61 E9        30.30F WCI   2
LAMAR          FAIR       9  -1  64 NE8       30.37F WCI  -3
SPRINGFIELD      N/A     18   8  65 S21       30.35F WCI   1
$$




USA.gov is the U.S. government's official web portal to all federal, state and local government web resources and services.